www.pogodaiklimat.ru

Погода и климат >> Архив погоды >> Кот-д'Ивуар >> Сан-Педро


ПОГОДА в Сан-Педро

  • Прогноз погоды в Сан-Педро
  • Монитор погоды в Сан-Педро

АРХИВ ПОГОДЫ в Сан-Педро

Время (UTC), дата Ветер
(напр.,м/с)
 
Видим.   Явления Облачность Т
(С)
Тd
(С)
f
(%)
Тe
(С)
Тes
(С)
Комфортность P
(гПа)
Po
(гПа)
Тmin
(С)
Tmax
(С)
R
(мм)
R24
(мм)
S
(см)
09 15.08 ЮВ 2 10 км 8/8 400 м
[Cu med, cong]
+24.6 +23.2 92 +33 +35 очень
душно
1015.8 1012.4
12 15.08 Ю 5 10 км 6/6 400 м
[Cu med, cong Ac trans]
+27.7 +23.7 79 +38 +42 очень
душно
1015.5 1012.2
15 15.08 Ю 6 10 км 5/5 400 м
[Cu med, cong]
+27.2 +23.2 79 +37 +39 очень
душно
1013.2 1009.9
18 15.08 Ю 4 10 км 8/5 400 м
[Cu med, cong Ac trans]
+26.3 +23.0 82 +35 +35 очень
душно
1013.4 1010.1 +28.3
21 15.08 Ю 3 8000 м 9/9 400 м
[Sc]
+24.2 +22.8 92 +32 +32 очень
душно
1014.6 1011.2
00 16.08 Ю 4 8000 м 6/4 400 м
[Sc Ac trans]
+24.9 +22.8 88 +33 +33 очень
душно
1015.1 1011.7
03 16.08 СЗ 2 8000 м 9/9 330 м
[Sc]
+23.6 +22.8 95 +31 +31 очень
душно
1014.0 1010.5
06 16.08 З 3 8000 м 9/9 330 м
[Sc]
+23.5 +22.7 95 +31 +31 очень
душно
1014.5 1011.1 +23.4
09 16.08 ЮЗ 5 10 км 9/4 400 м
[Cu med, cong Ac trans]
+26.0 +22.7 82 +34 +36 очень
душно
1015.6 1012.2
12 16.08 Ю 5 10 км 9/4 400 м
[Cu med, cong Ac trans]
+26.9 +22.3 76 +35 +38 очень
душно
1015.1 1011.8
15 16.08 Ю 6 10 км 6/6 400 м
[Cu med, cong]
+27.4 +22.8 76 +36 +38 очень
душно
1013.0 1009.6
18 16.08 Ю 5 10 км 8/8 400 м
[Cu med, cong]
+25.9 +22.2 80 +34 +34 очень
душно
1011.9 1008.6 +28.5
21 16.08 ЮЗ 4 10 км 9/9 400 м
[Sc]
+25.3 +22.4 84 +33 +33 очень
душно
1013.5 1010.1
00 17.08 З 3 10 км 9/9 400 м
[Sc]
+24.8 +22.3 86 +32 +32 очень
душно
1014.5 1011.1
03 17.08 З 3 10 км 9/9 400 м
[Sc]
+23.8 +22.2 91 +31 +31 очень
душно
1012.9 1009.5
06 17.08 С 1 8000 м 9/9 330 м
[Sc]
+23.9 +22.5 92 +31 +31 очень
душно
1013.7 1010.3 +23.7
09 17.08 ЮЗ 5 10 км 8/8 400 м
[Cu med, cong]
+26.1 +22.1 79 +34 +35 очень
душно
1014.9 1011.6
12 17.08 ЮЗ 5 10 км 9/9 400 м
[Cu med, cong]
+25.6 +22.4 83 +34 +35 очень
душно
1014.6 1011.2
15 17.08 ЮЗ 5 10 км 4/4 400 м
[Cu med, cong]
+27.9 +22.6 73 +37 +41 очень
душно
1011.8 1008.5
18 17.08 ЮЗ 6 10 км 9/9 400 м
[Cu med, cong]
+25.8 +22.5 82 +34 +34 очень
душно
1011.2 1090.7 +28.6
21 17.08 ЮЗ 5 10 км 8/8 400 м
[Sc]
+24.6 +22.1 86 +32 +32 очень
душно
1013.0 1009.6
00 18.08 З 3 8000 м 9/9 400 м
[Sc]
+23.5 +22.3 93 +31 +31 очень
душно
1013.8 1010.4
03 18.08 З 3 10 км 8/8 400 м
[Sc]
+23.1 +22.3 95 +32 +32 очень
душно
1012.8 1008.9
06 18.08 ЮЗ 3 8000 м в посл. час дождь 9/9 150 м
[Sc]
+22.8 +22.4 98 +31 +31 очень
душно
1013.0 1009.6 +22.6 3
09 18.08 ЮЗ 3 4000 м дождь {морось} 10/10 150 м
[Sc]
+22.9 +22.6 98 +31 +31 очень
душно
1015.0 1011.6
12 18.08 Ю 4 10 км {дождь, морось} 10/10 150 м
[Cu med, cong]
+23.3 +22.6 96 +32 +32 очень
душно
1015.0 1011.6 3
15 18.08 Ю 3 10 км в посл. час морось 8/8 400 м
[Cu med, cong Ac trans]
+24.8 +22.9 89 +33 +35 очень
душно
1012.2 1008.8
18 18.08 ЮЗ 5 10 км {морось} 8/4 400 м
[Cu med, cong Ac trans]
+24.1 +22.4 90 +31 +31 очень
душно
1011.7 1008.3 +26.5 4
03 19.08 СЗ 2 10 км 9/9 330 м
[Sc]
+23.3 +22.5 95 +32 +32 очень
душно
1012.7 1009.3
06 19.08 З 2 8000 м 8/6 330 м
[Sc Ac trans]
+22.6 +22.1 97 +30 +30 очень
душно
1012.6 1009.2 +22.5 4
09 19.08 ЮЗ 3 8000 м 9/9 400 м
[Cu med, cong]
+25.6 +23.3 87 +34 +35 очень
душно
1014.6 1011.2
12 19.08 Ю 5 10 км {морось} 8/8 400 м
[Cu med, cong Ac trans]
+26.7 +22.3 77 +35 +37 очень
душно
1014.5 1011.2
15 19.08 ЮЗ 5 10 км 9/9 400 м
[Cu med, cong]
+25.5 +22.4 83 +33 +34 очень
душно
1012.2 1008.9
18 19.08 ЮЗ 4 4000 м слаб. морось 10/10 150 м
[Sc]
+23.7 +23.1 96 +31 +31 очень
душно
1012.0 1008.6 +27.4 0.0
21 19.08 С 1 8000 м {морось} 9/9 400 м
[Sc]
+23.4 +22.7 96 +33 +33 очень
душно
1010.2 1010.2
00 20.08 ЮЗ 1 8000 м {морось} 9/9 400 м
[Sc]
+23.6 +22.8 95 +31 +31 очень
душно
1013.5 1010.1
03 20.08 СЗ 1 8000 м 8/8 400 м
[Sc]
+23.6 +22.9 96 +31 +31 очень
душно
1012.1 1012.1
06 20.08 СЗ 2 6000 м 8/8 400 м
[Sc]
+23.3 +22.6 96 +32 +32 очень
душно
1012.6 1009.2 +23.2
09 20.08 ЮЗ 4 10 км в посл. час морось 9/6 400 м
[Sc Ac trans]
+24.6 +23.2 92 +33 +34 очень
душно
1014.6 1011.2
12 20.08 ЮЗ 6 4000 м слаб. морось 10/10 150 м
[Cu med, cong]
+25.0 +23.8 93 +34 +34 очень
душно
1014.4 1011.0 0.6
15 20.08 Ю 5 10 км 9/9 400 м
[Cu med, cong]
+27.1 +23.0 78 +36 +37 очень
душно
1011.9 1008.5
18 20.08 ЮЗ 6 8000 м {морось} 9/9 150 м
[Cu med, cong]
+24.9 +23.3 91 +33 +33 очень
душно
1012.1 1008.8 +28.0 0.6
21 20.08 ЮЗ 4 8000 м в посл. час морось 8/8 400 м
[Sc]
+23.8 +22.8 94 +31 +31 очень
душно
1014.2 1010.8
00 21.08 ЮЗ 2 8000 м {морось} 9/9 400 м
[Sc]
+23.9 +23.0 95 +32 +32 очень
душно
1014.9 1011.5 0.4
03 21.08 ЮЗ 3 10 км 9/9 400 м
[Sc]
+23.8 +22.6 93 +31 +31 очень
душно
1013.3 1009.9
06 21.08 ЮЗ 3 8000 м 9/9 400 м
[Sc]
+23.8 +22.4 92 +31 +31 очень
душно
1013.9 1010.5 +23.4 1
09 21.08 ЮЗ 5 10 км {морось} 9/8 400 м
[Cu med, cong]
+25.5 +23.1 87 +34 +35 очень
душно
1014.9 1011.6
12 21.08 З 5 10 км {морось} 9/9 400 м
[Cu med, cong]
+26.1 +22.8 82 +35 +36 очень
душно
1014.5 1011.2 0.6
15 21.08 Ю 6 10 км 9/4 400 м
[Cu med, cong Ac As]
+26.6 +22.4 78 +35 +36 очень
душно
1012.6 1009.3
18 21.08 ЮЗ 5 4000 м слаб. морось {дождь} 10/10 150 м
[Sc]
+24.5 +22.4 88 +32 +32 очень
душно
1012.9 1009.5 +28.3 0.6
21 21.08 ЮЗ 4 10 км 8/8 400 м
[Sc]
+24.0 +21.9 88 +31 +31 очень
душно
1014.7 1011.4
00 22.08 ЮЗ 4 10 км {морось} 9/9 400 м
[Sc]
+24.4 +22.2 88 +32 +32 очень
душно
1014.6 1011.2 0.0
03 22.08 З 3 8000 м {морось} 8/8 400 м
[Sc]
+22.9 +22.4 97 +31 +31 очень
душно
1013.2 1009.8
06 22.08 С 1 4000 м слаб. морось 9/9 150 м
[Sc]
+22.6 +22.1 97 +30 +30 очень
душно
1014.3 1010.9 +22.3 2

 

Местоположение метеостанции Сан-Педро (Кот-д'Ивуар): широта 4.75 долгота -6.65 высота над уровнем моря 30 м.

В архиве по умолчанию представлена погода в Сан-Педро за последнюю неделю. Архивные данные за месяц целиком и за предыдущие месяцы, начиная с января 2011 года, Вы можете получить, выбрав интересующий диапазон дат из раскрывающегося списка и нажав кнопку "Ввод!".


*Определитесь, кто Вы:
робот инопланетянин человек

Внимание! Время в таблицах - всемирное. Для получения местного времени необходимо прибавить поправку, которая равна 0 ч.

Смотрите также архив погоды в соседних городах и на ближайших метеорологических станциях:

Погода в Сассандре (Кот-д'Ивуар) (67 км)
Погода в Табу (Кот-д'Ивуар) (88 км)
Погода в Ганьоа (Кот-д'Ивуар) (172 км)
Погода в Далоа (Кот-д'Ивуар) (237 км)
Погода в Ямусукро (Кот-д'Ивуар) (279 км)
Погода в Димбокро (Кот-д'Ивуар) (302 км)
Погода в Абиджане (Кот-д'Ивуар) (306 км)
Погода в Мане (Кот-д'Ивуар) (308 км)
Погода в Буаке (Кот-д'Ивуар) (375 км)
Погода в Адиаке (Кот-д'Ивуар) (376 км)

Пояснения к столбцам:

Ветер - указаны скорость ветра в м/с - средняя за 10 мин, порывы в срок и между сроками (в фигурных скобках) и направление, откуда дует ветер: С - северный, СВ - северо-восточный, В - восточный, ЮВ - юго-восточный, Ю - южный, ЮЗ - юго-западный, З - западный, СЗ - северо-западный.
Видимость - горизонтальная дальность видимости в метрах или километрах. При видимости от 1 до 10 км при отсутствии осадков обычно наблюдается дымка, при ухудшении видимости до 1 км и менее - туман. В сухую погоду видимость может ухудшаться дымом, пылью или мглою.
Явления - указаны атмосферные явления, наблюдавшиеся в срок или в последний час перед сроком; фигурными скобками обозначены явления, наблюдавшиеся между сроками (за 1-3 часа до срока); квадратными скобками обозначены град или гололедные отложения с указанием их диаметра в мм.
Облачность - указаны через наклонную черту общая и нижняя облачность в баллах и высота нижней границы облаков в метрах; квадратными скобками обозначены формы облаков: Ci - перистые, Cs - перисто-слоистые, Cc - перисто-кучевые, Ac - высококучевые, As - высокослоистые, Sc - слоисто-кучевые, Ns - слоисто-дождевые, Cu - кучевые, Cb - кучево-дождевые. Подробнее классификацию облаков см. в Атласе облаков (PDF).
T - Температура воздуха - температура, измеренная на высоте 2 м над землей.
Td - Температура точки росы - температура, при понижении до которой содержащийся в воздухе водяной пар достигнет насыщения.
f - Относительная влажность воздуха - влажноcть воздуха, измеренная на высоте 2 м над землей.
Te - Эффективная температура - температура, которую ощущает одетый по сезону человек в тени. Характеристика душности погоды. При расчете учитывается влияние влажности воздуха и скорости ветра на теплоощущения человека.
Tes - Эффективная температура на солнце - температура, которую ощущает человек, с поправкой на солнечный нагрев. Характеристика знойности погоды. Зависит от высоты солнца над горизонтом, облачности и скорости ветра. Ночью, в пасмурную погоду, а также при ветре 12 м/с и более поправка равна нулю.
P - Атмосферное давление - приведенное к уровню моря атмосферное давление.
Po - Атмосферное давление - измеренное на уровне метеостанции атмосферное давление.
Tmin - Минимальная температура - минимум температуры воздуха на высоте 2 м над землей.
Tmax - Максимальная температура - максимум температуры воздуха на высоте 2 м над землей.
R - Количество осадков - Количество выпавших осадков за период времени, мм. При наведении курсора мыши на число - период времени, за который выпало указанное количество осадков.
R24 - Количество осадков - Количество выпавших осадков за 24 часа, мм.
S - Снежный покров - Высота снежного покрова, см. При наведении курсора мыши на число - состояние снежного покрова и степень покрытия местности в баллах.